Time,TemperatureF,DewpointF,PressureIn,WindDirection,WindDirectionDegrees,WindSpeedMPH,WindSpeedGustMPH,Humidity,HourlyPrecipIn,Conditions,Clouds,dailyrainin,SoftwareType,DateUTC
2013-01-18 00:07:00,30.1,22.0,30.07,NE,50,3.0,6.0,72,0.00,,,0.00,weatherlink.com 1.10,2013-01-18 05:07:00,
2013-01-18 00:22:00,29.4,21.0,30.07,ENE,67,1.0,7.0,70,0.00,,,0.00,weatherlink.com 1.10,2013-01-18 05:22:00,
2013-01-18 00:37:00,28.9,20.0,30.05,ENE,68,3.0,6.0,70,0.00,,,0.00,weatherlink.com 1.10,2013-01-18 05:37:00,
2013-01-18 00:52:00,28.3,19.0,30.06,NNE,15,3.0,7.0,67,0.00,,,0.00,weatherlink.com 1.10,2013-01-18 05:52:00,
2013-01-18 01:07:00,28.0,18.0,30.10,ENE,63,3.0,7.0,66,0.00,,,0.00,weatherlink.com 1.10,2013-01-18 06:07:00,
2013-01-18 01:22:00,27.7,16.0,30.10,NE,53,3.0,6.0,63,0.00,,,0.00,weatherlink.com 1.10,2013-01-18 06:22:00,
2013-01-18 01:37:00,27.5,16.0,30.11,ENE,71,3.0,6.0,62,0.00,,,0.00,weatherlink.com 1.10,2013-01-18 06:37:00,
2013-01-18 01:52:00,27.4,16.0,30.11,NNE,19,2.0,5.0,63,0.00,,,0.00,weatherlink.com 1.10,2013-01-18 06:52:00,
2013-01-18 02:07:00,27.2,15.0,30.12,NNW,348,2.0,6.0,60,0.00,,,0.00,weatherlink.com 1.10,2013-01-18 07:07:00,
2013-01-18 02:22:00,27.1,15.0,30.13,ESE,105,1.0,6.0,60,0.00,,,0.00,weatherlink.com 1.10,2013-01-18 07:22:00,
2013-01-18 02:37:00,26.8,15.0,30.12,ENE,72,4.0,6.0,61,0.00,,,0.00,weatherlink.com 1.10,2013-01-18 07:37:00,
2013-01-18 02:53:00,26.6,14.0,30.13,ENE,65,3.0,6.0,59,0.00,,,0.00,weatherlink.com 1.10,2013-01-18 07:53:00,
2013-01-18 03:08:00,26.5,14.0,30.14,NNE,27,1.0,4.0,59,0.00,,,0.00,weatherlink.com 1.10,2013-01-18 08:08:00,
2013-01-18 03:23:00,26.4,14.0,30.14,NE,51,1.0,3.0,59,0.00,,,0.00,weatherlink.com 1.10,2013-01-18 08:23:00,
2013-01-18 03:38:00,26.3,14.0,30.13,ENE,63,3.0,5.0,59,0.00,,,0.00,weatherlink.com 1.10,2013-01-18 08:38:00,
2013-01-18 03:53:00,26.1,14.0,30.13,NE,50,2.0,3.0,60,0.00,,,0.00,weatherlink.com 1.10,2013-01-18 08:53:00,
2013-01-18 04:08:00,25.8,14.0,30.14,NE,52,1.0,3.0,62,0.00,,,0.00,weatherlink.com 1.10,2013-01-18 09:08:00,
2013-01-18 04:23:00,25.6,15.0,30.15,NNW,340,1.0,6.0,64,0.00,,,0.00,weatherlink.com 1.10,2013-01-18 09:23:00,
2013-01-18 04:53:00,25.2,15.0,30.18,NNE,25,4.0,8.0,64,0.00,,,0.00,weatherlink.com 1.10,2013-01-18 09:53:00,
2013-01-18 05:08:00,25.0,14.0,30.20,ENE,60,3.0,7.0,64,0.00,,,0.00,weatherlink.com 1.10,2013-01-18 10:08:00,
2013-01-18 05:23:00,24.7,13.0,30.21,ENE,60,3.0,6.0,62,0.00,,,0.00,weatherlink.com 1.10,2013-01-18 10:23:00,
2013-01-18 05:38:00,24.4,13.0,30.22,North,359,2.0,7.0,62,0.00,,,0.00,weatherlink.com 1.10,2013-01-18 10:38:00,
2013-01-18 06:08:00,23.6,13.0,30.25,NE,44,4.0,7.0,64,0.00,,,0.00,weatherlink.com 1.10,2013-01-18 11:08:00,
2013-01-18 06:23:00,22.8,13.0,30.26,ENE,64,3.0,6.0,67,0.00,,,0.00,weatherlink.com 1.10,2013-01-18 11:23:00,
2013-01-18 06:38:00,22.3,13.0,30.28,ENE,60,2.0,7.0,67,0.00,,,0.00,weatherlink.com 1.10,2013-01-18 11:38:00,
2013-01-18 06:53:00,22.1,14.0,30.29,ENE,62,3.0,5.0,70,0.00,,,0.00,weatherlink.com 1.10,2013-01-18 11:53:00,
2013-01-18 07:08:00,21.9,14.0,30.30,NNE,23,2.0,6.0,71,0.00,,,0.00,weatherlink.com 1.10,2013-01-18 12:08:00,
2013-01-18 07:23:00,21.8,13.0,30.32,NNE,15,2.0,5.0,69,0.00,,,0.00,weatherlink.com 1.10,2013-01-18 12:23:00,
2013-01-18 07:38:00,21.8,13.0,30.34,NE,52,2.0,4.0,69,0.00,,,0.00,weatherlink.com 1.10,2013-01-18 12:38:00,
2013-01-18 07:53:00,21.6,11.0,30.35,NE,44,3.0,6.0,65,0.00,,,0.00,weatherlink.com 1.10,2013-01-18 12:53:00,
2013-01-18 08:08:00,21.6,11.0,30.36,ENE,65,3.0,6.0,64,0.00,,,0.00,weatherlink.com 1.10,2013-01-18 13:08:00,
2013-01-18 08:23:00,21.7,12.0,30.37,NNE,30,6.0,7.0,66,0.00,,,0.00,weatherlink.com 1.10,2013-01-18 13:23:00,
2013-01-18 08:39:00,21.9,12.0,30.38,NE,56,3.0,6.0,67,0.00,,,0.00,weatherlink.com 1.10,2013-01-18 13:39:00,
2013-01-18 08:54:00,21.9,11.0,30.39,ENE,60,6.0,9.0,64,0.00,,,0.00,weatherlink.com 1.10,2013-01-18 13:54:00,
2013-01-18 09:09:00,22.4,12.0,30.40,NE,53,1.0,4.0,64,0.00,,,0.00,weatherlink.com 1.10,2013-01-18 14:09:00,
2013-01-18 09:24:00,23.0,12.0,30.42,North,4,2.0,8.0,62,0.00,,,0.00,weatherlink.com 1.10,2013-01-18 14:24:00,
2013-01-18 09:39:00,23.7,11.0,30.43,North,356,4.0,7.0,58,0.00,,,0.00,weatherlink.com 1.10,2013-01-18 14:39:00,
2013-01-18 09:54:00,23.6,10.0,30.44,NW,315,2.0,8.0,57,0.00,,,0.00,weatherlink.com 1.10,2013-01-18 14:54:00,
2013-01-18 10:09:00,24.1,10.0,30.45,North,349,7.0,7.0,54,0.00,,,0.00,weatherlink.com 1.10,2013-01-18 15:09:00,
2013-01-18 10:24:00,24.5,9.0,30.45,NE,36,1.0,6.0,53,0.00,,,0.00,weatherlink.com 1.10,2013-01-18 15:24:00,
2013-01-18 10:39:00,25.2,10.0,30.46,NW,321,1.0,8.0,52,0.00,,,0.00,weatherlink.com 1.10,2013-01-18 15:39:00,
2013-01-18 10:54:00,24.8,8.0,30.46,West,260,1.0,10.0,48,0.00,,,0.00,weatherlink.com 1.10,2013-01-18 15:54:00,
2013-01-18 11:09:00,25.4,8.0,30.45,ENE,61,7.0,10.0,48,0.00,,,0.00,weatherlink.com 1.10,2013-01-18 16:09:00,
2013-01-18 11:24:00,25.7,7.0,30.44,WNW,302,3.0,10.0,46,0.00,,,0.00,weatherlink.com 1.10,2013-01-18 16:24:00,
2013-01-18 11:39:00,24.9,7.0,30.45,West,281,2.0,10.0,46,0.00,,,0.00,weatherlink.com 1.10,2013-01-18 16:39:00,
2013-01-18 11:54:00,25.5,8.0,30.44,North,6,4.0,7.0,47,0.00,,,0.00,weatherlink.com 1.10,2013-01-18 16:54:00,
2013-01-18 12:09:00,26.3,8.0,30.45,NNW,332,2.0,7.0,46,0.00,,,0.00,weatherlink.com 1.10,2013-01-18 17:09:00,
2013-01-18 12:24:00,26.7,6.0,30.46,WNW,285,3.0,8.0,42,0.00,,,0.00,weatherlink.com 1.10,2013-01-18 17:24:00,
2013-01-18 12:39:00,26.5,5.0,30.45,NE,41,7.0,11.0,39,0.00,,,0.00,weatherlink.com 1.10,2013-01-18 17:39:00,
2013-01-18 12:54:00,26.4,4.0,30.44,NW,319,4.0,9.0,39,0.00,,,0.00,weatherlink.com 1.10,2013-01-18 17:54:00,
2013-01-18 13:09:00,27.4,6.0,30.44,WNW,297,4.0,7.0,40,0.00,,,0.00,weatherlink.com 1.10,2013-01-18 18:09:00,
2013-01-18 13:24:00,27.9,7.0,30.45,NW,323,3.0,7.0,41,0.00,,,0.00,weatherlink.com 1.10,2013-01-18 18:24:00,
2013-01-18 13:39:00,28.6,7.0,30.46,SW,232,6.0,8.0,40,0.00,,,0.00,weatherlink.com 1.10,2013-01-18 18:39:00,
2013-01-18 13:54:00,27.7,6.0,30.46,North,8,3.0,14.0,39,0.00,,,0.00,weatherlink.com 1.10,2013-01-18 18:54:00,
2013-01-18 14:09:00,28.0,5.0,30.46,NNW,336,3.0,12.0,37,0.00,,,0.00,weatherlink.com 1.10,2013-01-18 19:09:00,
2013-01-18 14:24:00,28.1,5.0,30.45,NW,313,3.0,8.0,37,0.00,,,0.00,weatherlink.com 1.10,2013-01-18 19:24:00,
2013-01-18 14:39:00,28.1,6.0,30.46,NNW,345,5.0,6.0,39,0.00,,,0.00,weatherlink.com 1.10,2013-01-18 19:39:00,
2013-01-18 14:54:00,28.0,5.0,30.46,North,353,5.0,9.0,38,0.00,,,0.00,weatherlink.com 1.10,2013-01-18 19:54:00,
2013-01-18 15:09:00,27.8,6.0,30.46,NNE,30,8.0,8.0,39,0.00,,,0.00,weatherlink.com 1.10,2013-01-18 20:09:00,
2013-01-18 15:24:00,27.7,6.0,30.46,North,9,1.0,8.0,40,0.00,,,0.00,weatherlink.com 1.10,2013-01-18 20:24:00,
2013-01-18 15:39:00,27.5,7.0,30.46,NNE,18,0.0,6.0,41,0.00,,,0.00,weatherlink.com 1.10,2013-01-18 20:39:00,
2013-01-18 15:54:00,27.3,6.0,30.46,NE,43,1.0,5.0,40,0.00,,,0.00,weatherlink.com 1.10,2013-01-18 20:54:00,
2013-01-18 16:09:00,26.5,6.0,30.47,NNW,337,0.0,3.0,41,0.00,,,0.00,weatherlink.com 1.10,2013-01-18 21:09:00,
2013-01-18 16:24:00,26.0,6.0,30.47,NNW,342,0.0,4.0,42,0.00,,,0.00,weatherlink.com 1.10,2013-01-18 21:24:00,
2013-01-18 16:39:00,25.7,6.0,30.47,NW,321,0.0,2.0,44,0.00,,,0.00,weatherlink.com 1.10,2013-01-18 21:39:00,
2013-01-18 16:54:00,25.2,6.0,30.48,NW,309,0.0,5.0,44,0.00,,,0.00,weatherlink.com 1.10,2013-01-18 21:54:00,
2013-01-18 17:09:00,24.7,6.0,30.48,North,349,0.0,3.0,45,0.00,,,0.00,weatherlink.com 1.10,2013-01-18 22:09:00,
2013-01-18 17:25:00,24.3,6.0,30.49,WNW,292,0.0,1.0,45,0.00,,,0.00,weatherlink.com 1.10,2013-01-18 22:25:00,
2013-01-18 17:39:00,23.8,6.0,30.50,WNW,293,0.0,0.0,47,0.00,,,0.00,weatherlink.com 1.10,2013-01-18 22:39:00,
2013-01-18 17:54:00,23.2,7.0,30.50,SW,232,0.0,1.0,49,0.00,,,0.00,weatherlink.com 1.10,2013-01-18 22:54:00,
2013-01-18 18:09:00,23.0,7.0,30.50,SW,232,0.0,1.0,50,0.00,,,0.00,weatherlink.com 1.10,2013-01-18 23:09:00,
2013-01-18 18:24:00,22.4,8.0,30.50,SW,232,0.0,0.0,54,0.00,,,0.00,weatherlink.com 1.10,2013-01-18 23:24:00,
2013-01-18 18:39:00,22.1,9.0,30.50,SW,232,0.0,0.0,57,0.00,,,0.00,weatherlink.com 1.10,2013-01-18 23:39:00,
2013-01-18 18:54:00,21.4,9.0,30.51,SW,232,0.0,1.0,58,0.00,,,0.00,weatherlink.com 1.10,2013-01-18 23:54:00,
2013-01-18 19:09:00,21.0,9.0,30.50,SW,232,0.0,0.0,59,0.00,,,0.00,weatherlink.com 1.10,2013-01-19 00:09:00,
2013-01-18 19:24:00,20.8,9.0,30.50,SW,232,0.0,0.0,61,0.00,,,0.00,weatherlink.com 1.10,2013-01-19 00:24:00,
2013-01-18 19:39:00,20.4,10.0,30.49,SW,232,0.0,0.0,63,0.00,,,0.00,weatherlink.com 1.10,2013-01-19 00:39:00,
2013-01-18 19:54:00,20.9,11.0,30.49,SSE,150,0.0,2.0,66,0.00,,,0.00,weatherlink.com 1.10,2013-01-19 00:54:00,
2013-01-18 20:09:00,20.8,11.0,30.49,South,182,0.0,0.0,67,0.00,,,0.00,weatherlink.com 1.10,2013-01-19 01:09:00,
2013-01-18 20:24:00,21.5,10.0,30.49,SW,224,0.0,1.0,62,0.00,,,0.00,weatherlink.com 1.10,2013-01-19 01:24:00,
2013-01-18 20:39:00,22.5,10.0,30.48,SSE,154,0.0,5.0,60,0.00,,,0.00,weatherlink.com 1.10,2013-01-19 01:39:00,
2013-01-18 20:54:00,21.8,12.0,30.48,SSE,154,0.0,1.0,65,0.00,,,0.00,weatherlink.com 1.10,2013-01-19 01:54:00,
2013-01-18 21:09:00,21.3,11.0,30.49,North,349,0.0,1.0,65,0.00,,,0.00,weatherlink.com 1.10,2013-01-19 02:09:00,
2013-01-18 21:24:00,21.1,11.0,30.49,North,349,0.0,0.0,65,0.00,,,0.00,weatherlink.com 1.10,2013-01-19 02:24:00,
2013-01-18 21:39:00,21.8,12.0,30.48,WSW,242,1.0,1.0,65,0.00,,,0.00,weatherlink.com 1.10,2013-01-19 02:39:00,
2013-01-18 21:54:00,23.3,11.0,30.47,WSW,257,5.0,6.0,60,0.00,,,0.00,weatherlink.com 1.10,2013-01-19 02:54:00,
2013-01-18 22:09:00,23.3,12.0,30.47,WNW,297,1.0,2.0,61,0.00,,,0.00,weatherlink.com 1.10,2013-01-19 03:09:00,
2013-01-18 22:25:00,23.3,12.0,30.46,WSW,248,2.0,4.0,61,0.00,,,0.00,weatherlink.com 1.10,2013-01-19 03:25:00,
2013-01-18 22:40:00,24.0,11.0,30.46,SW,214,2.0,5.0,59,0.00,,,0.00,weatherlink.com 1.10,2013-01-19 03:40:00,
2013-01-18 22:55:00,24.5,11.0,30.45,SW,224,2.0,6.0,57,0.00,,,0.00,weatherlink.com 1.10,2013-01-19 03:55:00,
2013-01-18 23:10:00,24.8,11.0,30.45,WSW,252,3.0,9.0,57,0.00,,,0.00,weatherlink.com 1.10,2013-01-19 04:10:00,
2013-01-18 23:25:00,25.3,11.0,30.44,NW,309,1.0,5.0,56,0.00,,,0.00,weatherlink.com 1.10,2013-01-19 04:25:00,
2013-01-18 23:40:00,25.8,12.0,30.43,SSW,195,2.0,7.0,56,0.00,,,0.00,weatherlink.com 1.10,2013-01-19 04:40:00,
2013-01-18 23:55:00,26.0,12.0,30.42,SW,232,7.0,8.0,56,0.00,,,0.00,weatherlink.com 1.10,2013-01-19 04:55:00,